Location: Lombard
(41.8800°N, 88.0080°W)
Time: 17:02:35
(UTC-05:00)

Vanguard 3 - Pass Details

Date: 18 July 2024
Orbit: 508 x 3215 km, 33.3° (Epoch: 12 June)

Event Time Altitude Azimuth Distance (km) Brightness Sun altitude
Exits shadow 01:04:59 39° 176° (S) 3,596 9.8 -27.2°
Maximum altitude 01:09:00 43° 148° (SSE) 3,626 10.0 -27.1°
Drops below altitude 10° 01:26:27 10° 86° (E) 6,147 11.7 -26.9°
Sets 01:31:32 0° 81° (E) 7,116 12.2 -26.7°
